Time,TemperatureF,DewpointF,PressureIn,WindDirection,WindDirectionDegrees,WindSpeedMPH,WindSpeedGustMPH,Humidity,HourlyPrecipIn,Conditions,Clouds,dailyrainin,SoftwareType,DateUTC
2013-03-01 01:02:00,49.0,47.0,-100.00,WNW,302,5.0,14.0,92,-99.99,,,-99.99,,2013-03-01 09:02:00,
2013-03-01 01:11:00,49.0,47.0,-100.00,WNW,302,5.0,14.0,92,-99.99,,,-99.99,,2013-03-01 09:11:00,
2013-03-01 03:00:00,50.0,47.0,-100.00,South,184,6.0,17.0,89,-99.99,,,-99.99,,2013-03-01 11:00:00,
2013-03-01 03:01:00,50.0,47.0,-100.00,NNE,31,5.0,14.0,89,-99.99,,,-99.99,,2013-03-01 11:01:00,
2013-03-01 03:11:00,50.0,47.0,-100.00,NNE,31,5.0,14.0,89,-99.99,,,-99.99,,2013-03-01 11:11:00,
2013-03-01 05:00:00,50.0,47.0,-100.00,NNE,14,3.0,13.0,89,-99.99,,,-99.99,,2013-03-01 13:00:00,
2013-03-01 05:01:00,50.0,47.0,-100.00,NNE,27,3.0,7.0,89,-99.99,,,-99.99,,2013-03-01 13:01:00,
2013-03-01 05:11:00,50.0,47.0,-100.00,NNE,27,3.0,7.0,89,-99.99,,,-99.99,,2013-03-01 13:11:00,
2013-03-01 07:01:00,50.0,47.0,-100.00,WSW,244,6.0,22.0,89,-99.99,,,-99.99,,2013-03-01 15:01:00,
2013-03-01 07:11:00,50.0,47.0,-100.00,WSW,244,6.0,22.0,89,-99.99,,,-99.99,,2013-03-01 15:11:00,
2013-03-01 08:20:00,50.0,47.0,-100.00,SW,230,6.0,16.0,89,-99.99,,,-99.99,,2013-03-01 16:20:00,
2013-03-01 09:01:00,50.0,47.0,-100.00,SW,230,6.0,16.0,89,-99.99,,,-99.99,,2013-03-01 17:01:00,
2013-03-01 09:11:00,50.0,47.0,-100.00,SW,230,6.0,16.0,89,-99.99,,,-99.99,,2013-03-01 17:11:00,
2013-03-01 11:01:00,51.0,47.0,-100.00,NNW,337,5.0,24.0,86,-99.99,,,-99.99,,2013-03-01 19:01:00,
2013-03-01 11:11:00,51.0,47.0,-100.00,NNW,337,5.0,24.0,86,-99.99,,,-99.99,,2013-03-01 19:11:00,
2013-03-01 14:20:00,52.0,47.0,-100.00,SSE,161,6.0,16.0,82,-99.99,,,-99.99,,2013-03-01 22:20:00,
2013-03-01 15:01:00,52.0,47.0,-100.00,SSE,161,6.0,16.0,82,-99.99,,,-99.99,,2013-03-01 23:01:00,
2013-03-01 15:11:00,52.0,47.0,-100.00,SSE,161,6.0,16.0,82,-99.99,,,-99.99,,2013-03-01 23:11:00,
2013-03-01 17:00:00,51.0,47.0,-100.00,NNW,347,3.0,13.0,86,-99.99,,,-99.99,,2013-03-02 01:00:00,
2013-03-01 21:01:00,49.0,47.0,-100.00,NNE,21,3.0,9.0,92,-99.99,,,-99.99,,2013-03-02 05:01:00,
2013-03-01 21:12:00,49.0,47.0,-100.00,NNE,21,3.0,9.0,92,-99.99,,,-99.99,,2013-03-02 05:12:00,
2013-03-01 22:20:00,49.0,47.0,-100.00,North,357,3.0,7.0,92,-99.99,,,-99.99,,2013-03-02 06:20:00,
2013-03-01 23:01:00,49.0,47.0,-100.00,North,357,3.0,7.0,92,-99.99,,,-99.99,,2013-03-02 07:01:00,
2013-03-01 23:11:00,49.0,47.0,-100.00,North,357,3.0,7.0,92,-99.99,,,-99.99,,2013-03-02 07:11:00,